Location: Joussard
(55.3985°N, 115.9507°W)
Time: 01:22:21
(UTC+00:00)

BlueWalker 3 - Visible Passes

Search period start: 21 April 2024 00:00
Search period end: 01 May 2024 00:00
Orbit: 485 x 495 km, 53.2° (Epoch: 20 April)

Date Brightness Start Highest point End Pass type
(mag) Time Alt. Az. Time Alt. Az. Time Alt. Az.
21 Apr 2.9 03:38:18 10° SSW 03:41:33 27° SSE 03:44:49 10° E visible
21 Apr 1.9 05:15:37 10° WSW 05:19:22 58° S 05:21:12 27° ESE visible
21 Apr 3.3 06:53:39 10° W 06:55:38 28° WSW 06:55:38 28° WSW visible
22 Apr 1.9 04:50:57 10° WSW 04:54:42 57° S 04:57:35 16° E visible
22 Apr 2.3 06:28:59 10° W 06:32:02 47° SW 06:32:02 47° SW visible
23 Apr 2.0 04:26:15 10° WSW 04:30:01 56° SSE 04:33:47 10° E visible
23 Apr 1.9 06:04:17 10° W 06:08:04 59° S 06:08:15 58° S visible
23 Apr 4.5 07:42:35 10° W 07:42:40 10° W 07:42:40 10° W visible
24 Apr 2.0 04:01:33 10° WSW 04:05:17 55° SSE 04:09:03 10° E visible
24 Apr 1.9 05:39:33 10° W 05:43:20 59° S 05:44:24 41° SE visible
24 Apr 4.1 07:17:50 10° W 07:18:48 16° W 07:18:48 16° W visible
25 Apr 1.9 05:14:49 10° W 05:18:36 60° S 05:20:28 27° ESE visible
25 Apr 3.6 06:53:05 10° W 06:54:52 22° WSW 06:54:52 22° WSW visible
26 Apr 2.0 04:50:02 10° W 04:53:49 60° S 04:56:29 18° ESE visible
26 Apr 3.1 06:28:17 10° W 06:30:53 28° SW 06:30:53 28° SW visible
27 Apr 2.0 04:25:14 10° W 04:29:00 61° S 04:32:28 12° ESE visible
27 Apr 2.8 06:03:28 10° W 06:06:52 31° SSW 06:06:52 31° SSW visible
28 Apr 2.0 04:00:25 10° W 04:04:12 61° S 04:07:58 10° ESE visible
28 Apr 2.8 05:38:38 10° W 05:42:04 32° SSW 05:42:49 29° S visible
29 Apr 2.8 05:13:46 10° W 05:17:14 33° SSW 05:18:45 24° SSE visible
30 Apr 2.8 04:48:52 10° W 04:52:22 34° SSW 04:54:41 17° SSE visible
30 Apr 4.4 06:28:49 10° WSW 06:29:05 10° SW 06:29:05 10° SW visible
